Ljubljana Jože Pučnik Airport

Jump to: basic info | weather | frequencies | runways | comments

Related pages: nearby airports | nearby navaids | notams | map

Basic information (top)

Codes: LJU LJLJ
Location: lon 46.223701, lat 14.457600, elev 1,273 ft / 388 m msl
Status: large_airport
Scheduled airline service: yes
Links: Wikipedia Mobile

Weather (top)

Current conditions (rec'd 2014/09/02 21:00Z):

LJLJ 022100Z 10003KT 070V130 8000 -RA SCT003 BKN060 OVC080 12/12 Q1016 NOSIG

Airport forecast (rec'd 2014/09/02 21:03Z):

TAF LJLJ 022000Z 0221/0321 VRB02KT 9999 -RA FEW005 BKN060 OVC090 
      BECMG 0303/0306 NSW SCT060 BKN090 PROB40 
      TEMPO 0314/0318 -SHRA SCT040TCU BKN060

Frequencies (top)

Verify before use: may be inaccurate or out of date.

A/D: 135.275 MHz (APP)
ATIS: 128.175 MHz (also on VOR DOL 112.700)
GND: 121.625 MHz ()
HANDLING & GA: 131.4 MHz ()
TWR: 118 MHz (TWR)

Runways (top)

13/31: 10,827 x 148 ft (3,300 x 45 m) — paved — lighted

Latest comments (top)

I wish more were like that: It's small, it's cosy, it's convenient. ... [read]

an experience: I too managed to land here from ... [read]

Small airport without hassles: Managed to land here in a snowstorm in ... [read]

More... (top)

See also NOTAMs and nearby airports and navaids, or visit the Ljubljana Jože Pučnik Airport page at the main OurAirports website..